Regional Weather Roundup
Issued by NWS Upton, NY

Home | Current Version | Previous Version | Text Only | Print | Product List | Glossary On
Versions: 1 2 3 4 5 6 7 8 9 10 11 12 13 14 15 16 17 18 19 20 21 22 23 24 25 26 27 28 29 30 31 32 33 34 35 36 37 38 39 40 41 42 43 44 45 46 47 48 49 50
383
ASUS41 KOKX 110808
RWROKX

REGIONAL WEATHER ROUNDUP
NATIONAL WEATHER SERVICE NEW YORK NY
300 AM EST SUN DEC 11 2016

NOTE: "FAIR" INDICATES FEW OR NO CLOUDS BELOW 12,000 FEET WITH NO
SIGNIFICANT WEATHER AND/OR OBSTRUCTIONS TO VISIBILITY.

NYZ071-072-176-178-NJZ106-104-110900-
NEW YORK CITY METRO AREA

CITY           SKY/WX    TMP DP  RH WIND       PRES   REMARKS
Central Park   PTCLDY    29  16  58 VRB5      30.50R WCI  24
Wall St Helipt MOSUNNY   30  20  66 SW6       30.50S WCI  24
Bronx Bot Gard NOT AVBL
LaGuardia APRT PTCLDY    31  16  54 NW8       30.49R WCI  23
Kennedy INTL   MOCLDY    30  15  53 W9        30.51R WCI  22
Breezy Point     N/A    N/A N/A N/A NW6         N/A
Newark/Liberty MOCLDY    27  16  63 W5        30.49R WCI  22
Teterboro      CLOUDY    26  15  63 S3        30.49R
$$

NYZ177-179-078>081-110900-
LONG ISLAND NEW YORK

CITY           SKY/WX    TMP DP  RH WIND       PRES   REMARKS
Jones Beach      N/A    N/A N/A N/A NW10        N/A
Matinecock PT    N/A     32 N/A N/A W10         N/A  WCI  24
Farmingdale    PTCLDY    27  18  69 NW3       30.48R
MacArthur/ISP  PTCLDY    24  19  81 W6        30.46S WCI  17
Shirley        CLEAR     21  18  88 CALM      30.48R
Westhampton    NOT AVBL
Southampton    NOT AVBL
Bridgehampton  NOT AVBL
East Hampton     N/A     16  12  86 CALM      30.46R
Montauk          N/A     31  15  52 NW5       30.46R WCI  26
$$

NYZ052-065-067-110900-
HUDSON VALLEY

CITY           SKY/WX    TMP DP  RH WIND       PRES   REMARKS
White Plains   CLEAR     26  17  68 NW8       30.44R WCI  18
Newburgh       MOCLDY    19  19 100 CALM      30.46R
Montgomery     CLEAR     16  13  88 SW3       30.45R
Poughkeepsie   CLEAR     17  14  88 CALM      30.46R
Albany         PTCLDY    17  13  84 CALM      30.44R
$$

NJZ001-105-106-008-010-013-015-019>022-104-110900-
NEW JERSEY

CITY           SKY/WX    TMP DP  RH WIND       PRES   REMARKS
Newark/Liberty MOCLDY    27  16  63 W5        30.49R WCI  22
Teterboro      CLOUDY    26  15  63 S3        30.49R
Caldwell       CLOUDY    24  16  71 CALM      30.49R
Somerville     PTCLDY    25  16  68 CALM      30.48R
Linden           N/A     27  16  62 CALM      30.50S
Sussex         CLOUDY    15  12  88 CALM      30.45S
Andover          N/A     20  17  88 CALM      30.46R
Trenton        CLOUDY    27  15  61 CALM      30.49R
Millville      CLOUDY    21  19  92 CALM      30.52R
Atlantic City  PTCLDY    25  16  68 W3        30.52R
Wrightstown    CLOUDY    26  17  67 CALM      30.47S
Toms River     CLOUDY    21  16  81 CALM      30.51S
Belmar         PTCLDY    24  16  71 W5        30.51R WCI  18
$$

PAZ047>061-062-071-110900-
EASTERN PENNSYLVANIA

CITY           SKY/WX    TMP DP  RH WIND       PRES   REMARKS
Philadelphia   CLOUDY    29  15  56 NW3       30.52S
Allentown      CLOUDY    26  15  63 SW5       30.47S WCI  20
Scranton       PTCLDY    22  15  75 SW3       30.43R
$$

CTZ002-004>006-009-010-012-RIZ004-006-007-MAZ004-011-015-110900-
SOUTHERN NEW ENGLAND
 IN CT

CITY           SKY/WX    TMP DP  RH WIND       PRES   REMARKS
Bradley INTL   PTCLDY    12   8  84 CALM      30.46R
Hartford       CLEAR     15  14  95 CALM      30.47S
Danbury        CLEAR     14  11  87 CALM      30.45R
Wtrbury/Oxford CLEAR     18  12  79 CALM      30.43R
Bridgeport     CLEAR     26  20  77 CALM      30.47R
Meriden        CLEAR     15  10  80 CALM      30.47R
New Haven      CLEAR     16  13  88 N3        30.47R
Chester          N/A     23  10  58 CALM      30.44R
Groton         CLEAR     21  15  78 N3        30.47R
Wilimantic     CLEAR     14   9  80 NE3       30.47R

 IN RI

CITY           SKY/WX    TMP DP  RH WIND       PRES   REMARKS
Providence     PTCLDY    16  10  77 CALM      30.46S
Block Island   CLEAR     29  15  56 NW7       30.46R WCI  22
Westerly       CLEAR     16  11  80 CALM      30.46S
 IN MA

CITY           SKY/WX    TMP DP  RH WIND       PRES   REMARKS
Boston         CLEAR     22   8  55 NW5       30.46S WCI  16
Worcester      CLEAR     17   9  70 W8        30.38R WCI   7
Westfield      CLEAR      9   8  96 CALM      30.45R
Provincetown   PTCLDY    27  15  61 NW14G20   30.45R WCI  16
Nantucket      CLEAR     26  11  52 NW10      30.45R WCI  16
$$

ANZ330-335-338-340-345-350-353-355-110900-
COASTAL MARINE OBSERVATIONS


STATION/POSITION TIME  SKY/WX   TEMP    WIND        PRES    VSBY  WAVE
                                AIR SEA DIR/SP/G                  HT/PER
                 (UTC)          (F)     (DEG/KT/KT) (MB)    (MI)  (FT/S)
NY HARB ENTRANCE 0650            34 51  300/ 14/ 17 1031.9          2/ 3
20 S FIRE ISLAND 0650            34 52  330/ 12/ 17 1031.3          2/ 4
GREAT SOUTH BAY  0715            31 38                N/A
23 SSW MONTAUK P 0650            34 54  310/ 10/ 16 1031.2          2/ 5
15 E BARNEGAT LI 0730               51                N/A           3/ 4
HUDSON CANYON    0650            38 55              1031.0          4/ 5
KINGS POINT      0742            30 44              1031.9
EXECUTION ROCKS  0745            31     280/ 12/ 14   N/A
CENTRAL LI SOUND 0715            33 48  290/  8/ 12   N/A           1/ 4
EASTERN LI SOUND NOT AVBL
ROBBINS REEF     0742            29     280/  7/  9 1032.8
$$


>>>>>>>>>>>>>>>>>>>>>>>>>>>> KEY <<<<<<<<<<<<<<<<<<<<<<<<<<<
>                                                          <
>     SKY/WX - Sky Condition/Present Weather               <
>     TMP    - Temperature in Fahrenheit                   <
>     DP     - Dew Point in Fahrenheit                     <
>     RH     - Relative Humidity in Percent                <
>     WIND   - Direction (from) and Speed in MPH           <
>     PRES   - Mean Sea Level Pressure (inches of Hg)      <
>     WCI    - Wind Chill Index                            <
>     VSB    - VISIBILITY IN MILES                         <
>     HX     - HEAT INDEX                                  <
>     TC     - TEMPERATURE IN CELSIUS                      <
>     VRB    - VARIABLE WIND DIRECTION                     <
>                                                          <
>>>>>>>>>>>>>>>>>>>>>>>>>>>> KEY <<<<<<<<<<<<<<<<<<<<<<<<<<<




USA.gov is the U.S. government's official web portal to all federal, state and local government web resources and services.